Location: Étavigny
(49.1201°N, 2.9800°E)
Time: 14:59:27
(UTC+00:00)

Star 26B S/N 008 - Visible Passes

Search period start: 12 July 2024 00:00
Search period end: 22 July 2024 00:00
Orbit: 789 x 865 km, 98.7° (Epoch: 12 July)

Date Brightness Start Highest point End Pass type
(mag) Time Alt. Az. Time Alt. Az. Time Alt. Az.
12 Jul ? 21:51:54 10° NNW 21:53:58 12° NW 21:56:02 10° WNW visible
13 Jul ? 21:32:17 10° NNW 21:35:33 16° NW 21:38:51 10° W visible
14 Jul ? 21:13:02 10° N 21:17:07 22° WNW 21:21:13 10° WSW visible
15 Jul ? 20:53:56 10° N 20:58:37 28° WNW 21:03:17 10° WSW visible
16 Jul ? 20:34:58 10° N 20:40:04 38° WNW 20:45:10 10° SW visible
17 Jul ? 21:59:04 10° NNW 22:00:30 11° NW 22:01:56 10° WNW visible
18 Jul ? 21:39:08 10° NNW 21:42:07 15° NW 21:45:05 10° W visible
19 Jul ? 21:19:48 10° NNW 21:23:41 20° NW 21:27:33 10° W visible
20 Jul ? 21:00:41 10° N 21:05:12 26° WNW 21:09:43 10° WSW visible
21 Jul ? 20:41:41 10° N 20:46:40 34° WNW 20:51:39 10° SW visible
